Regional Weather Roundup
Issued by NWS

Home | Current Version | Previous Version | Text Only | Print | Product List | Glossary On
Versions: 1 2 3 4 5 6 7 8 9 10 11 12 13 14 15 16 17 18 19 20 21 22 23 24 25 26 27 28 29 30 31 32 33 34 35 36 37 38 39 40 41 42 43 44 45 46 47 48 49 50
000
ASUS43 KDTX 280401
RWRMI
MICHIGAN HOURLY REGIONAL WEATHER ROUNDUP
NATIONAL WEATHER SERVICE DETROIT/PONTIAC MI
1100 PM EST TUE JAN 27 2015

NOTE: "FAIR" INDICATES FEW OR NO CLOUDS BELOW 12,000 FEET WITH NO
SIGNIFICANT WEATHER AND/OR OBSTRUCTION TO VISIBILITY.

MIZ047>049-052>055-059>063-066>070-074>076-081>083-280500-
SOUTHEAST LOWER MICHIGAN

CITY           SKY/WX    TMP DP  RH WIND       PRES   REMARKS
ADRIAN         CLEAR     14   8  77 NW3       30.23S
ALMA           CLEAR      9   5  83 CALM      30.25R
ANN ARBOR      CLEAR     11   7  84 NW5       30.22S WCI   3
BAD AXE        CLEAR      6   4  89 CALM      30.21S
CARO           CLEAR      9   6  88 CALM      30.22S
DETROIT CITY   CLEAR     20  10  65 N5        30.21F WCI  13
DETROIT        CLEAR     17  10  74 NW3       30.22F
FLINT          CLEAR     11   6  81 W3        30.22S
GROSSE ILE     CLEAR     19  10  68 NW5       30.21S WCI  13
HILLSDALE      CLEAR     12   9  86 CALM      30.20R
HOWELL         CLEAR     13   9  83 CALM      30.20S

CITY           SKY/WX    TMP DP  RH WIND       PRES   REMARKS
JACKSON        CLEAR     12   8  84 CALM      30.21S
LAMBERTVILLE   CLEAR     19  12  73 CALM      30.23S
LANSING        CLEAR     13   8  81 CALM      30.23R
LAPEER         FAIR       7   5  90 CALM      30.20F
MASON          CLEAR     12   9  87 CALM      30.21S
MONROE         CLEAR     18  10  73 CALM      30.21S
MT. CLEMENS    CLEAR     16   9  75 NW7       30.19S WCI   6
PONTIAC        CLEAR     14   8  77 CALM      30.18F
PORT HOPE        N/A     23  11  60 N9        30.20S WCI  13
PORT HURON     CLEAR     14   9  79 NW6       30.20S WCI   5
TRI CITIES     CLEAR     15  10  80 CALM      30.24S
TROY           CLEAR     19  10  68 NW5       30.23S WCI  13
SAGINAW HB     CLEAR     12  10  92 W3        30.24R
$$
MIZ043>046-050>051-056>058-064>065-071>073-077>080-280500-
SOUTHWEST LOWER MICHIGAN

CITY           SKY/WX    TMP DP  RH WIND       PRES   REMARKS
BATTLE CREEK   CLEAR     16   7  67 CALM      30.22S
BENTON HARBOR  CLEAR     14  12  92 CALM      30.25R
BIG RAPIDS     CLEAR     11   4  74 CALM      30.22R
COLDWATER      CLEAR     12   8  81 CALM      30.21S
FREMONT        FAIR      12   7  81 NW5       30.24R WCI   4
HOLLAND        CLEAR     16  11  80 CALM      30.25R
GRAND RAPIDS   CLEAR     18   9  68 CALM      30.23R
IONIA          FAIR      16   8  70 CALM      30.21S
KALAMAZOO      CLEAR     14   9  80 CALM      30.23R
LUDINGTON      CLEAR     16  11  80 CALM      30.27R
MARSHALL       CLEAR     12   8  83 CALM      30.21S
MOUNT PLEASANT FAIR       9   3  77 CALM      30.24R
MUSKEGON       CLEAR     16  10  77 CALM      30.25R
SOUTH HAVEN    PTCLDY    16  12  85 CALM      30.24S
$$
MIZ016>042-280500-
NORTHERN LOWER MICHIGAN

CITY           SKY/WX    TMP DP  RH WIND       PRES   REMARKS
ALPENA         PTCLDY    -1  -6  79 CALM      30.25R
BEAVER ISLAND  PTCLDY     4  -2  77 CALM      30.25S
BELLAIRE       PTCLDY     6   3  88 CALM      30.27R
CADILLAC       FAIR       5   1  83 CALM      30.20R
CHARLEVOIX     PTCLDY     7   3  84 CALM      30.28R
FRANKFORT      PTCLDY    11   8  89 CALM      30.26R
GAYLORD        PTCLDY     0  -2  91 CALM      30.20R
GRAYLING       PTCLDY    -2  -6  82 CALM      30.22S
HARBOR SPRINGS PTCLDY     5   1  80 CALM      30.24S
HOUGHTON LAKE  CLEAR      4  -1  80 E3        30.21R
MANISTEE       CLEAR     12   7  79 CALM      30.26R
OSCODA         CLEAR      8   1  76 CALM      30.24R
PELLSTON       MOCLDY    -1  -5  82 CALM      30.25S
ROGERS CITY    PTCLDY     4   1  88 SW5       30.26R WCI  -6
TRAVERSE CITY  PTCLDY     9   4  80 CALM      30.25R
$$
MIZ007>008-015-280500-
EASTERN UPPER MICHIGAN

CITY           SKY/WX    TMP DP  RH WIND       PRES   REMARKS
KINROSS        MOCLDY     1  -4  78 CALM      30.23F
MACKINAC ISLAN MOCLDY     8  -2  65 W5        30.24S WCI  -1
NEWBERRY       MOCLDY    -1  -4  87 SW5       30.22S WCI -11
S. S. MARIE    MOCLDY     6  -4  63 CALM      30.23F
MUNISING         N/A     12   7  80 S7        30.19F WCI   1
$$
MIZ004>006-011>014-085-280500-
CENTRAL UPPER MICHIGAN

CITY           SKY/WX    TMP DP  RH WIND       PRES   REMARKS
MANISTIQUE     MOCLDY     6   4  89 CALM      30.22F
ESCANABA       MOCLDY    21  16  79 S6        30.21F WCI  14
MENOMINEE      MOCLDY    18  16  93 CALM      30.23S
SAWYER-GWINN   CLOUDY    20  16  84 SW6       30.17R WCI  13
$$
MIZ001>003-009>011-084-280500-
WESTERN UPPER MICHIGAN

CITY           SKY/WX    TMP DP  RH WIND       PRES   REMARKS
IRON MOUNTAIN  CLOUDY    22  16  78 S6        30.16S WCI  14
HOUGHTON       CLOUDY    24  18  77 SW6       30.15S WCI  17
COPPER HARBOR    N/A     25  19  78 SW5       30.18R WCI  19
IRONWOOD       CLOUDY    25  21  86 CALM      30.12S
$$

ABBREVIATIONS USED IN REMARKS
   TC - TEMPERATURE IN CELSIUS
  WCI - WIND CHILL INDEX
   HX - HEAT INDEX
  VSB - VISIBILITY




USA.gov is the U.S. government's official web portal to all federal, state and local government web resources and services.